Torna al catalogo

STARLINK-35756

AttivoComunicazioniVLEO
NORAD 67175·PAYLOAD·🇺🇸 United States

Lanciato Dec 17, 2025 da Cape Canaveral Space Force Station

Loading…

Prossimi Passaggi (prossime 24 ore)

TLE

AggiornatoSource: CelesTrak SupGP

Epoca: Sep 15, 2026, 03:07 UTC

1 67175C 25303N   26258.13034722  .00038828  00000+0  14061-2 0  2584
2 67175  43.0028 320.9441 0001609 264.1909 203.6056 15.27566072    19

Traccia STARLINK-35756 in tempo reale con AllMySat

Download on the App Store